Overview Statistics Trail Chart Weather Telemetry Raw packets
 

This is the latest recevied weather packets stored in our database for station/object K6GMW. If no packets are shown the sender has not sent any weather packets the latest 10 day(s).

<< 48 49 50 51 52 53 54 >>
Time Temp. Humidity Pressure Rain* Wind** Luminosity Snow
1788301788 37.78° C 37% 1014.5 hPa 0 mm - 299 W/m² -
1788301506 37.78° C 37% 1014.6 hPa 0 mm - 321 W/m² -
1788301180 37.22° C 38% 1014.5 hPa 0 mm - 347 W/m² -
1788300876 37.22° C 38% 1014.8 hPa 0 mm - 367 W/m² -
1788300576 37.22° C 38% 1014.7 hPa 0 mm - 386 W/m² -
1788300275 37.78° C 38% 1014.7 hPa 0 mm - 405 W/m² -
1788299974 37.78° C 37% 1014.7 hPa 0 mm - 418 W/m² -
1788299673 37.22° C 38% 1014.8 hPa 0 mm - 423 W/m² -
1788299372 37.22° C 38% 1014.7 hPa 0 mm - 441 W/m² -
1788299072 37.78° C 37% 1015.1 hPa 0 mm - 81 W/m² -
1788298772 37.78° C 37% 1015.2 hPa 0 mm - 497 W/m² -
1788298466 37.22° C 38% 1015.3 hPa 0 mm - 514 W/m² -
1788298165 37.22° C 38% 1015.1 hPa 0 mm - 524 W/m² -
1788297861 37.78° C 37% 1015.1 hPa 0 mm - 556 W/m² -
1788297558 36.67° C 39% 1015.5 hPa 0 mm - 589 W/m² -
1788297253 36.67° C 38% 1015.4 hPa 0 mm - 82 W/m² -
1788296948 37.78° C 38% 1015.4 hPa 0 mm - 652 W/m² -
1788296665 38.33° C 37% 1015.3 hPa 0 mm - 673 W/m² -
1788296341 37.78° C 39% 1015.4 hPa 0 mm - 706 W/m² -
1788296041 37.78° C 39% 1015.6 hPa 0 mm - 702 W/m² -
1788295736 37.22° C 40% 1015.4 hPa 0 mm - 690 W/m² -
1788295433 36.67° C 41% 1015.5 hPa 0 mm - 730 W/m² -
1788295132 37.22° C 40% 1015.8 hPa 0 mm - 125 W/m² -
1788294826 37.78° C 41% 1015.7 hPa 0 mm - 775 W/m² -
1788294521 37.22° C 41% 1015.7 hPa 0 mm - 819 W/m² -

* Rain latest hour (hover to see other rain measurements)
** Current wind speed in m/s (hover to see current wind gust speed)